Falfurrias, TX

10:23 AM CDT on July 23, 2019 (GMT -0500)
Falfurrias

Weather History for KBKS - May, 2019

Change the Weather History Date:

Monday, May 27, 2019

  Actual Average (KNQI) Record (KNQI)
Temperature  
Mean Temperature 83 °F -  
Max Temperature 97 °F 88 °F 99 °F (2016)
Min Temperature 70 °F 70 °F 68 °F (2002)
Cooling Degree Days 18    
Growing Degree Days 33 (Base 50)    
Moisture  
Dew Point 70 °F    
Average Humidity 69    
Maximum Humidity 92    
Minimum Humidity 32    
Precipitation  
Precipitation 0.00 in - - ()
Sea Level Pressure  
Sea Level Pressure 29.86 in    
Wind  
Wind Speed 8 mph (SE)    
Max Wind Speed 20 mph    
Max Gust Speed 30 mph    
Visibility 9 miles    
Events      
Averages and records for this station are not official NWS values.
T = Trace of Precipitation, MM = Missing Value Source: NWS Daily Summary

Daily Weather History Graph

Daily Weather History Graph

Search for Another Location

Airport or City:

Astronomy

May. 27, 2019 Rise Set
Actual Time 6:39 AM CDT 8:20 PM CDT
Civil Twilight 6:13 AM CDT 8:46 PM CDT
Nautical Twilight 5:42 AM CDT 9:17 PM CDT
Astronomical Twilight 5:09 AM CDT 9:49 PM CDT
Moon 2:38 AM CDT (5/27) 2:17 PM CDT (5/27)
Length of Visible Light 14h 32m
Length of Day
13h 40m
Last Quarter, 40% of the Moon is Illuminated
May 27
Last Quarter
Jun 3
New
Jun 10
First Quarter
Jun 17
Full
Jun 25
Last Quarter

Hourly Weather History & Observations

Time (CDT) Temp. Heat Index Dew Point Humidity Pressure Visibility Wind Dir Wind Speed Gust Speed Precip Events Conditions
12:15 AM 73.9 °F - 70.0 °F 87% 29.98 in 10.0 mi ESE 5.8 mph - N/A   Clear
12:35 AM 73.8 °F - 70.0 °F 88% 29.97 in 10.0 mi ESE 3.5 mph - N/A   Clear
12:55 AM 73.6 °F - 70.2 °F 89% 29.96 in 7.0 mi ESE 5.8 mph - N/A   Clear
1:15 AM 74.3 °F - 70.7 °F 88% 29.95 in 10.0 mi ESE 6.9 mph - N/A   Clear
1:35 AM 75.0 °F - 70.7 °F 86% 29.94 in 10.0 mi SE 6.9 mph - N/A   Clear
1:55 AM 74.8 °F - 70.7 °F 87% 29.93 in 10.0 mi SE 5.8 mph - N/A   Clear
2:15 AM 75.2 °F - 70.7 °F 86% 29.91 in 10.0 mi SE 9.2 mph - N/A   Clear
2:35 AM 75.6 °F - 71.2 °F 86% 29.91 in 10.0 mi SE 8.1 mph - N/A   Clear
2:55 AM 75.6 °F - 71.2 °F 86% 29.91 in 10.0 mi SSE 6.9 mph - N/A   Clear
3:15 AM 75.2 °F - 71.1 °F 87% 29.91 in 10.0 mi SSE 6.9 mph - N/A   Scattered Clouds
3:35 AM 74.5 °F - 70.7 °F 88% 29.91 in 10.0 mi Calm Calm - N/A   Scattered Clouds
3:55 AM 73.9 °F - 70.7 °F 90% 29.91 in 10.0 mi Calm Calm - N/A   Scattered Clouds
4:15 AM 72.9 °F - 70.0 °F 91% 29.90 in 7.0 mi SE 3.5 mph - N/A   Clear
4:35 AM 72.9 °F - 69.8 °F 90% 29.90 in 7.0 mi SE 3.5 mph - N/A   Clear
4:55 AM 72.7 °F - 69.8 °F 91% 29.90 in 7.0 mi SSE 3.5 mph - N/A   Clear
5:15 AM 72.3 °F - 69.3 °F 90% 29.90 in 7.0 mi SE 3.5 mph - N/A   Clear
5:35 AM 72.0 °F - 69.3 °F 91% 29.90 in 7.0 mi SE 4.6 mph - N/A   Clear
5:55 AM 72.0 °F - 69.3 °F 91% 29.91 in 7.0 mi SE 4.6 mph - N/A   Clear
6:15 AM 71.8 °F - 69.1 °F 91% 29.91 in 7.0 mi Calm Calm - N/A   Clear
6:35 AM 71.6 °F - 68.9 °F 91% 29.91 in 5.0 mi East 3.5 mph - N/A   Clear
6:55 AM 70.9 °F - 68.4 °F 92% 29.92 in 5.0 mi Calm Calm - N/A   Clear
7:15 AM 70.9 °F - 68.5 °F 92% 29.92 in 5.0 mi Calm Calm - N/A   Clear
7:35 AM 71.2 °F - 68.9 °F 92% 29.92 in 4.0 mi Calm Calm - N/A   Scattered Clouds
7:55 AM 73.0 °F - 70.5 °F 92% 29.91 in 5.0 mi ESE 4.6 mph - N/A   Scattered Clouds
8:15 AM 74.8 °F - 71.4 °F 89% 29.92 in 7.0 mi SE 3.5 mph - N/A   Scattered Clouds
8:35 AM 77.5 °F - 72.0 °F 83% 29.92 in 7.0 mi SE 9.2 mph - N/A   Scattered Clouds
8:55 AM 79.3 °F - 72.5 °F 79% 29.93 in 7.0 mi SSE 9.2 mph - N/A   Mostly Cloudy
9:15 AM 80.2 °F 84.5 °F 72.9 °F 78% 29.93 in 7.0 mi SE 10.4 mph - N/A   Overcast
9:35 AM 82.0 °F 87.2 °F 72.7 °F 73% 29.92 in 7.0 mi SSE 10.4 mph 18.4 mph N/A   Mostly Cloudy
9:55 AM 83.1 °F 88.4 °F 72.1 °F 69% 29.92 in 10.0 mi SSE 13.8 mph - N/A   Scattered Clouds
10:15 AM 83.7 °F 88.6 °F 71.1 °F 66% 29.93 in 10.0 mi SSE 13.8 mph - N/A   Scattered Clouds
10:35 AM 84.7 °F 89.4 °F 70.5 °F 62% 29.92 in 10.0 mi SSE 13.8 mph 23.0 mph N/A   Scattered Clouds
10:55 AM 87.1 °F 92.4 °F 70.7 °F 58% 29.92 in 10.0 mi SSE 15.0 mph 19.6 mph N/A   Mostly Cloudy
11:15 AM 89.2 °F 94.1 °F 69.4 °F 52% 29.91 in 10.0 mi SSE 17.3 mph 21.9 mph N/A   Scattered Clouds
11:35 AM 89.4 °F 94.0 °F 69.3 °F 51% 29.91 in 10.0 mi South 13.8 mph - N/A   Scattered Clouds
11:55 AM 89.6 °F 94.3 °F 69.3 °F 51% 29.90 in 10.0 mi SSE 12.7 mph 18.4 mph N/A   Clear
12:15 PM 91.0 °F 95.2 °F 68.2 °F 47% 29.89 in 10.0 mi SSE 16.1 mph - N/A   Clear
12:35 PM 93.4 °F 97.0 °F 67.3 °F 42% 29.88 in 10.0 mi South 15.0 mph 21.9 mph N/A   Clear
12:55 PM 91.2 °F 94.6 °F 67.3 °F 45% 29.88 in 10.0 mi SSE 11.5 mph 17.3 mph N/A   Scattered Clouds
1:15 PM 93.0 °F 95.9 °F 66.2 °F 41% 29.87 in 10.0 mi SSE 12.7 mph 19.6 mph N/A   Scattered Clouds
1:35 PM 94.3 °F 97.2 °F 65.7 °F 39% 29.86 in 10.0 mi SSE 9.2 mph - N/A   Scattered Clouds
1:55 PM 95.0 °F 97.0 °F 64.4 °F 36% 29.85 in 10.0 mi SSE 15.0 mph 19.6 mph N/A   Scattered Clouds
2:15 PM 95.7 °F 98.2 °F 64.9 °F 36% 29.84 in 10.0 mi SE 12.7 mph 19.6 mph N/A   Scattered Clouds
2:35 PM 96.4 °F 97.4 °F 62.2 °F 32% 29.83 in 10.0 mi SSE 11.5 mph 18.4 mph N/A   Scattered Clouds
2:55 PM 96.4 °F 98.4 °F 64.2 °F 34% 29.82 in 10.0 mi SE 11.5 mph 18.4 mph N/A   Scattered Clouds
3:15 PM 95.9 °F 100.7 °F 68.4 °F 40% 29.81 in 10.0 mi ESE 15.0 mph 20.7 mph N/A   Scattered Clouds
3:35 PM 94.5 °F 101.4 °F 70.9 °F 46% 29.80 in 10.0 mi East 16.1 mph 21.9 mph N/A   Mostly Cloudy
3:55 PM 93.4 °F 101.5 °F 72.1 °F 50% 29.79 in 10.0 mi ESE 15.0 mph 25.3 mph N/A   Mostly Cloudy
4:15 PM 94.3 °F 102.9 °F 72.5 °F 49% 29.78 in 10.0 mi ESE 19.6 mph 25.3 mph N/A   Scattered Clouds
4:35 PM 93.9 °F 102.7 °F 72.7 °F 50% 29.78 in 10.0 mi ESE 17.3 mph 26.5 mph N/A   Scattered Clouds
4:55 PM 94.1 °F 102.5 °F 72.1 °F 49% 29.77 in 10.0 mi SE 18.4 mph 24.2 mph N/A   Scattered Clouds
5:15 PM 91.0 °F 98.7 °F 72.1 °F 54% 29.77 in 10.0 mi ESE 17.3 mph 25.3 mph N/A   Scattered Clouds
5:35 PM 91.8 °F 99.7 °F 72.5 °F 53% 29.76 in 10.0 mi ESE 18.4 mph 25.3 mph N/A   Scattered Clouds
5:55 PM 91.2 °F 98.5 °F 72.0 °F 53% 29.76 in 10.0 mi ESE 16.1 mph 29.9 mph N/A   Scattered Clouds
6:15 PM 91.2 °F 98.0 °F 71.6 °F 52% 29.77 in 10.0 mi ESE 18.4 mph 26.5 mph N/A   Scattered Clouds
6:35 PM 90.9 °F 98.3 °F 72.0 °F 54% 29.77 in 10.0 mi ESE 13.8 mph 21.9 mph N/A   Scattered Clouds
6:55 PM 89.6 °F 95.7 °F 70.9 °F 54% 29.77 in 10.0 mi SE 16.1 mph 23.0 mph N/A   Scattered Clouds
7:15 PM 88.7 °F 94.3 °F 70.7 °F 55% 29.77 in 10.0 mi SE 16.1 mph 21.9 mph N/A   Clear
7:35 PM 86.9 °F 92.5 °F 70.9 °F 59% 29.78 in 10.0 mi SE 13.8 mph 25.3 mph N/A   Clear
7:55 PM 85.3 °F 90.4 °F 70.7 °F 62% 29.78 in 10.0 mi SE 16.1 mph 21.9 mph N/A   Clear
8:15 PM 84.2 °F 89.0 °F 70.7 °F 64% 29.78 in 10.0 mi SE 19.6 mph 26.5 mph N/A   Clear
8:35 PM 83.3 °F 87.6 °F 70.5 °F 65% 29.78 in 10.0 mi SE 13.8 mph 20.7 mph N/A   Clear
8:55 PM 82.6 °F 87.1 °F 70.9 °F 68% 29.80 in 10.0 mi SE 10.4 mph - N/A   Clear
9:15 PM 81.9 °F 86.0 °F 70.9 °F 69% 29.80 in 10.0 mi SE 15.0 mph 20.7 mph N/A   Clear
9:35 PM 81.5 °F 85.5 °F 70.9 °F 70% 29.80 in 10.0 mi SE 11.5 mph 16.1 mph N/A   Clear
9:55 PM 81.0 °F 84.9 °F 71.2 °F 72% 29.80 in 10.0 mi SE 10.4 mph - N/A   Clear
10:15 PM 80.6 °F 84.4 °F 71.4 °F 73% 29.82 in 10.0 mi SE 11.5 mph 16.1 mph N/A   Clear
10:35 PM 80.1 °F 83.6 °F 71.2 °F 74% 29.81 in 10.0 mi SE 16.1 mph - N/A   Clear
10:55 PM 79.7 °F - 71.6 °F 76% 29.80 in 10.0 mi SE 12.7 mph 18.4 mph N/A   Clear
11:15 PM 79.2 °F - 71.8 °F 78% 29.80 in 10.0 mi SE 10.4 mph 20.7 mph N/A   Clear
11:35 PM 78.8 °F - 71.8 °F 79% 29.80 in 10.0 mi SE 11.5 mph 18.4 mph N/A   Clear
11:55 PM 78.3 °F - 71.6 °F 80% 29.80 in 10.0 mi SE 8.1 mph - N/A   Clear